DAL864 PAFA-CYXY

Flight info

Callsign DAL864
Flight time 1h 11m
Altitude 33000
Route RDFLG5 RDFLG DCT BIBEM
Aircraft A320/M-SDE3FGHIRWY/LB1

Departure

Time 2026-04-30 21:39
Airport Fairbanks International Airport (PAFA)

Arrival

Time 2026-04-30 22:50
Airport Whitehorse / Erik Nielsen International Airport (CYXY)
Time Latitude Longitude Altitude Speed Heading
2026-04-30 21:14 64.81664 -147.86935 425 ft 0 kts 41°
2026-04-30 21:32 64.81649 -147.86966 426 ft 4 kts 42°
2026-04-30 21:32 64.81629 -147.87007 421 ft 4 kts 39°
2026-04-30 21:32 64.81610 -147.87042 436 ft 1 kts 38°
2026-04-30 21:32 64.81610 -147.87043 436 ft 0 kts 38°
2026-04-30 21:35 64.81603 -147.87019 428 ft 5 kts 143°
2026-04-30 21:35 64.81555 -147.86919 419 ft 14 kts 126°
2026-04-30 21:35 64.81471 -147.86737 427 ft 18 kts 178°
2026-04-30 21:36 64.81344 -147.86925 433 ft 23 kts 218°
2026-04-30 21:36 64.81214 -147.87172 429 ft 25 kts 218°
2026-04-30 21:37 64.80814 -147.87884 426 ft 21 kts 219°
2026-04-30 21:37 64.80700 -147.88115 424 ft 23 kts 220°
2026-04-30 21:37 64.80569 -147.88354 424 ft 25 kts 218°
2026-04-30 21:37 64.80438 -147.88591 427 ft 19 kts 218°
2026-04-30 21:38 64.80326 -147.88719 419 ft 17 kts 159°
2026-04-30 21:38 64.80299 -147.88529 425 ft 14 kts 54°
2026-04-30 21:38 64.80358 -147.88422 422 ft 27 kts 39°
2026-04-30 21:38 64.80723 -147.87753 432 ft 101 kts 38°
2026-04-30 21:39 64.81433 -147.86441 460 ft 154 kts 37°
2026-04-30 21:39 64.82313 -147.84841 922 ft 166 kts 42°
2026-04-30 21:39 64.83204 -147.83152 1663 ft 164 kts 43°
2026-04-30 21:39 64.84047 -147.81356 2419 ft 162 kts 58°
2026-04-30 21:40 64.84248 -147.78878 3029 ft 157 kts 111°
2026-04-30 21:40 64.83672 -147.76659 3502 ft 169 kts 135°
2026-04-30 21:40 64.82613 -147.75043 3744 ft 196 kts 158°
2026-04-30 21:40 64.81255 -147.73825 4081 ft 223 kts 159°
2026-04-30 21:41 64.79712 -147.72502 4586 ft 245 kts 159°
2026-04-30 21:41 64.78090 -147.71074 5476 ft 252 kts 160°
2026-04-30 21:41 64.76441 -147.69607 6462 ft 255 kts 160°
2026-04-30 21:41 64.74771 -147.68118 7411 ft 258 kts 160°
2026-04-30 21:42 64.73083 -147.66606 8358 ft 262 kts 160°
2026-04-30 21:42 64.71368 -147.65070 9300 ft 265 kts 160°
2026-04-30 21:42 64.69639 -147.63477 10191 ft 270 kts 156°
2026-04-30 21:42 64.68040 -147.61081 10956 ft 279 kts 142°
2026-04-30 21:43 64.66719 -147.57630 11585 ft 295 kts 127°
2026-04-30 21:43 64.65602 -147.53364 11870 ft 320 kts 123°
2026-04-30 21:43 64.64428 -147.48779 12352 ft 335 kts 123°
2026-04-30 21:43 64.63220 -147.44068 13064 ft 342 kts 124°
2026-04-30 21:44 64.62001 -147.39332 13789 ft 348 kts 124°
2026-04-30 21:44 64.60739 -147.34453 14408 ft 355 kts 124°
2026-04-30 21:44 64.59448 -147.29488 15030 ft 362 kts 125°
2026-04-30 21:44 64.58129 -147.24443 15652 ft 368 kts 125°
2026-04-30 21:45 64.56785 -147.19321 16260 ft 374 kts 126°
2026-04-30 21:45 64.55411 -147.14112 16846 ft 381 kts 126°
2026-04-30 21:45 64.54012 -147.08831 17452 ft 387 kts 126°
2026-04-30 21:45 64.52587 -147.03458 18058 ft 393 kts 126°
2026-04-30 21:46 64.51141 -146.98003 18597 ft 399 kts 126°
2026-04-30 21:46 64.49675 -146.92478 19116 ft 405 kts 126°
2026-04-30 21:46 64.48192 -146.86890 19687 ft 409 kts 127°
2026-04-30 21:46 64.46688 -146.81245 20272 ft 413 kts 127°
2026-04-30 21:47 64.45166 -146.75555 20848 ft 417 kts 127°
2026-04-30 21:47 64.43630 -146.69823 21433 ft 421 kts 127°
2026-04-30 21:47 64.42077 -146.64033 22029 ft 425 kts 127°
2026-04-30 21:47 64.40508 -146.58205 22599 ft 429 kts 127°
2026-04-30 21:48 64.38920 -146.52324 23190 ft 433 kts 128°
2026-04-30 21:48 64.37321 -146.46424 23731 ft 436 kts 128°
2026-04-30 21:48 64.35697 -146.40450 24184 ft 439 kts 128°
2026-04-30 21:48 64.34066 -146.34467 24648 ft 442 kts 128°
2026-04-30 21:49 64.32420 -146.28451 25099 ft 445 kts 128°
2026-04-30 21:49 64.30764 -146.22410 25526 ft 447 kts 128°
2026-04-30 21:49 64.29087 -146.16342 25965 ft 450 kts 128°
2026-04-30 21:49 64.27377 -146.10305 26393 ft 452 kts 129°
2026-04-30 21:50 64.25636 -146.04264 26820 ft 453 kts 129°
2026-04-30 21:50 64.23877 -145.98225 27228 ft 455 kts 129°
2026-04-30 21:50 64.22103 -145.92170 27622 ft 458 kts 129°
2026-04-30 21:50 64.20317 -145.86074 28030 ft 460 kts 129°
2026-04-30 21:51 64.18528 -145.79967 28424 ft 463 kts 129°
2026-04-30 21:51 64.16724 -145.73815 28806 ft 465 kts 129°
2026-04-30 21:51 64.14915 -145.67654 29177 ft 468 kts 129°
2026-04-30 21:51 64.13093 -145.61458 29541 ft 470 kts 129°
2026-04-30 21:52 64.11263 -145.55231 29886 ft 473 kts 129°
2026-04-30 21:52 64.09425 -145.48983 30202 ft 475 kts 129°
2026-04-30 21:52 64.07573 -145.42713 30495 ft 476 kts 129°
2026-04-30 21:52 64.05712 -145.36443 30793 ft 478 kts 129°
2026-04-30 21:53 64.03839 -145.30156 31113 ft 479 kts 130°
2026-04-30 21:53 64.01960 -145.23872 31389 ft 480 kts 130°
2026-04-30 21:53 64.00072 -145.17578 31656 ft 482 kts 130°
2026-04-30 21:53 63.98180 -145.11283 31998 ft 481 kts 130°
2026-04-30 21:54 63.96293 -145.05017 32396 ft 479 kts 130°
2026-04-30 21:54 63.95046 -145.00885 32627 ft 478 kts 130°
2026-04-30 21:54 63.92550 -144.92663 33030 ft 477 kts 130°
2026-04-30 21:54 63.90687 -144.86525 33074 ft 466 kts 130°
2026-04-30 21:55 63.87060 -144.74596 33084 ft 455 kts 130°
2026-04-30 21:55 63.84031 -144.64729 33089 ft 454 kts 131°
2026-04-30 21:56 63.80412 -144.53016 33096 ft 454 kts 131°
2026-04-30 21:56 63.76792 -144.41323 33060 ft 454 kts 130°
2026-04-30 21:57 63.73158 -144.29638 33100 ft 455 kts 130°
2026-04-30 21:57 63.69535 -144.18052 33104 ft 455 kts 130°
2026-04-30 21:58 63.65884 -144.06423 33111 ft 454 kts 131°
2026-04-30 21:58 63.62225 -143.94846 33100 ft 454 kts 131°
2026-04-30 21:59 63.58553 -143.83313 33118 ft 454 kts 131°
2026-04-30 22:00 63.53192 -143.65757 33096 ft 455 kts 129°
2026-04-30 22:00 63.47868 -143.48156 33109 ft 455 kts 129°
2026-04-30 22:01 63.44279 -143.36505 33081 ft 455 kts 129°
2026-04-30 22:01 63.40675 -143.24899 33071 ft 454 kts 129°
2026-04-30 22:02 63.37069 -143.13353 33043 ft 453 kts 129°
2026-04-30 22:02 63.33463 -143.01840 33056 ft 453 kts 129°
2026-04-30 22:03 63.29859 -142.90359 33061 ft 452 kts 129°
2026-04-30 22:03 63.26265 -142.78993 33126 ft 452 kts 129°
2026-04-30 22:04 63.22639 -142.67588 33127 ft 452 kts 129°
2026-04-30 22:05 63.17189 -142.50558 33126 ft 450 kts 129°
2026-04-30 22:05 63.13558 -142.39285 33121 ft 449 kts 129°
2026-04-30 22:06 63.09930 -142.28056 33111 ft 449 kts 129°
2026-04-30 22:06 63.04476 -142.11275 33092 ft 448 kts 130°
2026-04-30 22:07 63.00854 -142.00219 33056 ft 448 kts 130°
2026-04-30 22:07 62.97203 -141.89140 33072 ft 447 kts 130°
2026-04-30 22:08 62.93549 -141.78099 33080 ft 446 kts 130°
2026-04-30 22:08 62.89891 -141.67095 33091 ft 446 kts 130°
2026-04-30 22:09 62.86228 -141.56127 33139 ft 446 kts 130°
2026-04-30 22:09 62.82563 -141.45164 33142 ft 446 kts 130°
2026-04-30 22:10 62.78889 -141.34241 33129 ft 446 kts 130°
2026-04-30 22:10 62.75201 -141.23363 33134 ft 446 kts 131°
2026-04-30 22:11 62.69653 -141.07108 33142 ft 445 kts 131°
2026-04-30 22:12 62.65954 -140.96281 33155 ft 446 kts 130°
2026-04-30 22:12 62.62341 -140.85325 33127 ft 446 kts 129°
2026-04-30 22:13 62.58759 -140.74344 33155 ft 445 kts 129°
2026-04-30 22:13 62.55154 -140.63442 33097 ft 444 kts 130°
2026-04-30 22:14 62.51535 -140.52612 33169 ft 444 kts 130°
2026-04-30 22:14 62.47913 -140.41814 33168 ft 443 kts 130°
2026-04-30 22:15 62.44283 -140.31042 33168 ft 443 kts 130°
2026-04-30 22:15 62.40650 -140.20308 33161 ft 442 kts 130°
2026-04-30 22:16 62.37014 -140.09619 33167 ft 442 kts 130°
2026-04-30 22:17 62.29732 -139.88356 33167 ft 441 kts 131°
2026-04-30 22:17 62.24257 -139.72494 33160 ft 440 kts 131°
2026-04-30 22:18 62.18774 -139.56696 33155 ft 440 kts 131°
2026-04-30 22:19 62.13264 -139.40978 33150 ft 440 kts 131°
2026-04-30 22:20 62.07741 -139.25312 33147 ft 440 kts 131°
2026-04-30 22:20 62.02201 -139.09721 33135 ft 439 kts 131°
2026-04-30 22:21 61.98532 -138.99421 33141 ft 439 kts 131°
2026-04-30 22:21 61.94834 -138.89108 33151 ft 439 kts 131°
2026-04-30 22:22 61.91117 -138.78805 33153 ft 439 kts 131°
2026-04-30 22:22 61.87405 -138.68536 33156 ft 439 kts 132°
2026-04-30 22:23 61.83679 -138.58289 33136 ft 439 kts 131°
2026-04-30 22:23 61.79952 -138.48053 33146 ft 440 kts 132°
2026-04-30 22:24 61.76209 -138.37822 33145 ft 440 kts 132°
2026-04-30 22:24 61.72453 -138.27631 33159 ft 440 kts 132°
2026-04-30 22:25 61.68685 -138.17469 33158 ft 440 kts 132°
2026-04-30 22:25 61.64908 -138.07327 33153 ft 440 kts 132°
2026-04-30 22:26 61.59220 -137.92114 33147 ft 441 kts 132°
2026-04-30 22:27 61.55446 -137.82040 33157 ft 442 kts 132°
2026-04-30 22:27 61.49725 -137.66866 33166 ft 442 kts 133°
2026-04-30 22:28 61.43971 -137.51749 33145 ft 442 kts 133°
2026-04-30 22:29 61.36288 -137.31710 33173 ft 442 kts 133°
2026-04-30 22:30 61.28592 -137.11793 32158 ft 439 kts 133°
2026-04-30 22:31 61.22894 -136.97147 30938 ft 430 kts 133°
2026-04-30 22:32 61.17291 -136.82863 29286 ft 420 kts 133°
2026-04-30 22:32 61.13638 -136.73581 28247 ft 412 kts 133°
2026-04-30 22:33 61.08248 -136.59968 26803 ft 401 kts 133°
2026-04-30 22:33 61.04760 -136.51198 25873 ft 395 kts 133°
2026-04-30 22:34 60.99557 -136.38186 24443 ft 389 kts 133°
2026-04-30 22:35 60.96117 -136.29626 23413 ft 387 kts 132°
2026-04-30 22:36 60.89319 -136.12783 21407 ft 379 kts 133°
2026-04-30 22:36 60.87635 -136.08639 20920 ft 378 kts 133°
2026-04-30 22:37 60.82612 -135.96317 19456 ft 373 kts 132°
2026-04-30 22:37 60.80948 -135.92235 18977 ft 372 kts 132°
2026-04-30 22:37 60.77624 -135.84129 17984 ft 371 kts 132°
2026-04-30 22:38 60.74290 -135.76035 16904 ft 370 kts 132°
2026-04-30 22:38 60.70985 -135.68022 15958 ft 367 kts 132°
2026-04-30 22:39 60.69343 -135.64049 15500 ft 365 kts 132°
2026-04-30 22:39 60.65008 -135.53610 14269 ft 360 kts 132°
2026-04-30 22:40 60.60216 -135.42141 12874 ft 350 kts 132°
2026-04-30 22:41 60.55565 -135.31022 11568 ft 338 kts 132°
2026-04-30 22:41 60.52708 -135.24209 10868 ft 306 kts 132°
2026-04-30 22:42 60.47453 -135.11806 9465 ft 285 kts 133°
2026-04-30 22:43 60.45247 -135.05218 8774 ft 284 kts 106°
2026-04-30 22:43 60.45484 -134.97802 7991 ft 256 kts 67°
2026-04-30 22:44 60.47044 -134.91789 7246 ft 232 kts 34°
2026-04-30 22:45 60.52686 -134.92718 5945 ft 202 kts 335°
2026-04-30 22:45 60.55213 -134.94642 5380 ft 189 kts 335°
2026-04-30 22:46 60.57654 -134.96509 4883 ft 186 kts 334°
2026-04-30 22:47 60.61929 -134.99762 3959 ft 143 kts 335°
2026-04-30 22:47 60.63742 -135.01167 3521 ft 139 kts 337°
2026-04-30 22:48 60.65556 -135.02569 3152 ft 139 kts 338°
2026-04-30 22:49 60.68245 -135.04625 2639 ft 136 kts 339°
2026-04-30 22:49 60.70789 -135.06596 2283 ft 100 kts 339°
2026-04-30 22:50 60.71750 -135.07372 2300 ft 18 kts 304°
2026-04-30 22:51 60.71655 -135.07548 2291 ft 10 kts 159°
2026-04-30 22:51 60.71548 -135.07555 2294 ft 5 kts 219°
2026-04-30 22:52 60.71531 -135.07585 2297 ft 1 kts 222°
2026-04-30 22:52 60.71530 -135.07587 2297 ft 0 kts 222°